Weather in Paxtachi

Uzbekistan     41°50′20″N   60°22′01″E
temp.,
°C
wind,
m/s
gust,
m/s
humid.,
%
clouds,
%
prec.,
mm/h
press.,
hPa
HPBL,
m
13 may, thu
thu1323:00+25ne512240 0.0 1016319
02:00+24ne613220 0.0 1016361
05:00+22ene714230 0.0 1016418
08:00+24ene812180 0.0 1018564
11:00+28ene88120 0.0 10181443
14:00+30ene8970 0.0 10181879
17:00+31ene91070 0.0 10172160
20:00+28ne71190 0.0 1017381
14 may, fri
fri1423:00+24ne613130 0.0 1018322
02:00+22ne512170 0.0 1018273
05:00+21ne410230 0.0 1018161
08:00+24ne610200 0.0 1019543
11:00+29ne89170 0.0 10192267
14:00+31ne89170 0.0 10172602
17:00+31ne99160 0.0 10162641
20:00+28ne610160 0.0 1016367
15 may, sat
sat1523:00+26ne612200 0.0 1016321
02:00+25ene614250 0.0 1016431
05:00+22ne49310 0.0 1016171
08:00+26ne69270 0.0 1017524
11:00+29ne89190 0.0 10162277
14:00+31ne99120 0.0 10152399
17:00+31ne910100 0.0 10132420
20:00+28ne611120 0.0 1013354
16 may, sun
sun1623:00+25nne513130 0.0 1013304
02:00+24ne613150 0.0 1012308
05:00+21ne511190 0.0 1013202
08:00+24ene710170 0.0 1014480
11:00+28ene78130 0.0 10141364
14:00+31ne8890 0.0 10121816
17:00+32ne7880 0.0 10102164
20:00+29ne4790 0.0 1011114
17 may, mon
mon1723:00+26ene44110 0.0 101147
02:00+24ene510150 0.0 1010177
05:00+22ene510200 0.0 1011147
08:00+26ene711180 0.0 1012504
11:00+31ene88110 0.0 10121808
14:00+34ene6690 0.0 10102518
17:00+34ne6670 0.0 10092766
20:00+30ne46100 0.0 100999